DECAYED

CZ-4B DEB, 46483 (Decayed)

Orbit data source: Space-Track

CZ-4B DEB, 46483 was space debris in LEO originally from a launch on Sun, 27 Sep 2020 UTC launched from the Taiyaun Space Center, China (TSC). Debris objects in space refer to the collection of defunct objects orbiting the Earth. Examples of debris include non-operational satellites, rocket bodies, and fragments generated from explosions, collisions, or faulty payload assembly.

Not visible in the next 10 days
Identifier
46483, 2020-067F
Orbit
Decayed
Last TLE update
3 months ago
Origin
Manufacturer
SAST
Mission
Decayed spacecraft
Bus & Motor
Unknown
Mass
Unknown
Launch date (UTC)
2020-09-27 (5 years ago)
Launch vehicle
Unknown
Launch site
Taiyaun Space Center, China (TSC)
Object type
Payload
Rocket body
Debris
Shape & HBR
Unknown
Radar Cross Section
Small (<0.1 m²)

Expand to show TLE details & history

TLE from 3 months ago
0 CZ-4B DEB
1 46483U 20067F   25030.37615339  .03907863  27349-5  22208-2 0  9999
2 46483  97.9294 184.1521 0011951 341.6384  18.4469 16.18960428239028
Epoch: 2025-01-30T09:01Z
Definitive object data (Epoch: 2025-01-30T09:01:39.652Z)
Latitude
-0.0001°
Longitude
-81.1172°
Altitude
218.099 km
Speed
7.78 km/s
True Right ascension
12h 16m 36s
True Declination
0° 00' 00"
Sunlit
Object was in full shadow at TLE epoch
Visualization observer readout
Visualization observer readout
Orbital elements
Apogee altitude
227.12 km
Perigee altitude
211.351 km
Semi-major axis
6,597.372 km
Eccentricity
0.0011951
Inclination
97.9294°
RAAN
184.1521°
Arg. of periapsis
341.6384°
True anomaly
18.4903°
Mean anomaly
18.4469°
Eccentric anomaly
18.46859°
Mean motion
4.0503 °/min
BSTAR
0.0022208
Orbital period
88.88 mins
Loading maneuver chart data...
Loading SW <> Apogee altitude chart data...
Loading historical data...
Loading historical data...
Loading historical data...
Loading historical data...
Loading historical data...
Loading historical data...
Loading historical data...

CZ-4B DEB Visibility forecast

Observer location: undefined°, undefined°

This satellite is decayed
Span
Click to sort rows by Start time (UTC) header in descending order
Start Az.
Max El. time (UTC)
Max El. Az.
Max El.
End time (UTC)
End Az.
|